Other Public Products
Issued by NWS Charleston, SC

Current Version | Previous Version | Graphics & Text | Print | Product List | Glossary On
Versions: 1 2 3 4 5 6 7 8 9 10 11 12 13 14 15 16 17 18 19 20 21 22 23 24 25 26 27 28 29 30 31 32 33 34 35 36 37 38 39 40 41 42 43 44 45 46 47 48 49 50
465
FPUS82 KCHS 191327
OPUCHS

TEST...KCHS/KSAV Gateway Observations...TEST
National Weather Service Charleston SC
800 AM EST THU JAN 19 2017

NOTE: "fair" indicates few or no clouds below 12,000 feet with no
significant weather and/or obstructions to visibility.

SCZ050-WAZ558-NCZ071-TXZ119-213-PAZ071-DCZ001-FLZ074-172-MI076-
NYZ176-178-MAZ016-IL014-TNZ027-NJZ106-GAZ044-MD014-191400-
...Gateway Observations for Charleston International...

CITY           SKY/WX    TMP DP  RH WIND       PRES   REMARKS
Chas Airport   PTCLDY    51  49  92 N5        30.04R
Seattle        MOCLDY    43  40  89 SE7       29.47S
Charlotte      MOCLDY    45  35  68 E5        30.09F
Dallas DFW     FOG       48  48 100 S8        29.81F VSB 1/8
Dallas Love    CLOUDY    50  48  93 SW6       29.83F
Philladelphia  MOCLDY    44  36  73 W8        30.09R
Wash National  CLOUDY    46  37  71 N7        30.11R
Baltimore      CLOUDY    44  37  76 W6        30.09R
Miami          PTCLDY    68  62  81 CALM      30.08R
Detroit        CLOUDY    34  31  88 SW8       30.08F WCI  27
Newark         PTCLDY    40  37  89 W7        30.05R WCI  35
Laguardia      PTCLDY    43  36  76 NW6       30.04R
J F K          PTCLDY    38  35  89 SW8       30.06R WCI  32
Boston Logan   CLOUDY    33  32  96 S3        30.00S
Ft. Lauderdale PTCLDY    65  63  93 NW3       30.07R
Chicago O`Hare CLOUDY    33  33 100 S5        29.99F FOG     WCI  29
Chicago Midway CLOUDY    33  32  96 S5        30.01F FOG     WCI  29
Houston Bush   HVY RAIN  55  53  93 CALM      29.89S FOG
Houston Hobby  RAIN      56  54  93 VRB5      29.91R
Nashville      CLOUDY    48  45  89 NE6       30.01F FOG
Atlanta        CLOUDY    56  52  86 CALM      30.04S

$$

GAZ044-118-TXZ119-213-NCZ071-DCZ001-MDZ014-506-PAZ021-071-NJZ106-
NYZ176-178-MAZ106-OHZ011-021-055-MIZ076-KYZ091-ILZ014-INZ047-
MNZ060-191400-
...Gateway Observations for Savannah International...

CITY           SKY/WX    TMP DP  RH WIND       PRES   REMARKS
Savannah Arpt  MOCLDY    56  54  93 CALM      30.05R
Atlanta        CLOUDY    56  52  86 CALM      30.04S
Charlotte      MOCLDY    45  35  68 E5        30.09F
Dallas DFW     FOG       48  48 100 S8        29.81F VSB 1/8
Houston Bush   HVY RAIN  55  53  93 CALM      29.89S FOG
Wash National  CLOUDY    46  37  71 N7        30.11R
Wash Dulles    CLOUDY    44  34  67 N3        30.10R
Baltimore      CLOUDY    44  37  76 W6        30.09R
Philadelphia   MOCLDY    44  36  73 W8        30.09R
Newark         PTCLDY    40  37  89 W7        30.05R WCI  35
Laguardia      PTCLDY    43  36  76 NW6       30.04R
J F K          PTCLDY    38  35  89 SW8       30.06R WCI  32
Boston         CLOUDY    33  32  96 S3        30.00S
Pittsburg      DRIZZLE   38  35  89 W8        30.09R WCI  32
Akron          CLOUDY    37  33  85 SW7       30.09R WCI  32
Cleveland      CLOUDY    39  33  79 W9        30.12R WCI  33
Cincinnati     CLOUDY    38  36  92 CALM      30.07S FOG
Columbus         N/A     37  37  99 S3        30.09S
Detroit        CLOUDY    34  31  88 SW8       30.08F WCI  27
Chicago O`Hare CLOUDY    33  33 100 S5        29.99F FOG     WCI  29
Minneapolis    CLEAR     33  29  85 SE6       29.82S WCI  28
Indianapolis   MOCLDY    35  33  92 E8        30.04F FOG     WCI  29

$$




USA.gov is the U.S. government's official web portal to all federal, state and local government web resources and services.